• In Czech Republic
  • List of Countries
  • For 7 days
  • Water Temperature
  • Satellite Maps
  • Weather Map
  • Weather Widgets
  • user-avatar
    Login

    Hourly Weather Hvoroschevka

    Today, 25 September, Tuesday

    Time Temperature Precipitation Wind Pressure Humidity
    00:00 +10°C° 0.5 mm 9 mps 735 mmHg 85%
    01:00 +10°C° 0.1 mm 8 mps 735 mmHg 85%
    02:00 +10°C° 0.1 mm 8 mps 735 mmHg 85%
    03:00 +9°C° 0.1 mm 7 mps 735 mmHg 84%
    04:00 +9°C° 0 mm 7 mps 735 mmHg 84%
    05:00 +8°C° 0 mm 6 mps 735 mmHg 83%
    06:00 +8°C° 0 mm 6 mps 735 mmHg 82%
    07:00 +8°C° 0 mm 7 mps 735 mmHg 81%
    08:00 +8°C° 0 mm 7 mps 736 mmHg 79%
    09:00 +8°C° 0 mm 7 mps 736 mmHg 78%
    10:00 +9°C° 0 mm 7 mps 736 mmHg 75%
    11:00 +9°C° 0 mm 7 mps 737 mmHg 73%
    12:00 +10°C° 0 mm 7 mps 737 mmHg 70%
    13:00 +9°C° 0.1 mm 7 mps 738 mmHg 70%
    14:00 +9°C° 0.1 mm 7 mps 738 mmHg 69%
    15:00 +9°C° 0.1 mm 7 mps 739 mmHg 69%
    16:00 +9°C° 0 mm 7 mps 739 mmHg 70%
    17:00 +8°C° 0 mm 7 mps 740 mmHg 71%
    18:00 +8°C° 0 mm 6 mps 741 mmHg 73%
    19:00 +7°C° 0 mm 6 mps 741 mmHg 73%
    20:00 +7°C° 0 mm 6 mps 742 mmHg 74%
    21:00 +5°C° 0 mm 6 mps 742 mmHg 75%
    22:00 +5°C° 0 mm 6 mps 743 mmHg 75%
    23:00 +5°C° 0 mm 6 mps 743 mmHg 76%

    Tomorrow, 26 September, Wednesday

    Time Temperature Precipitation Wind Pressure Humidity
    00:00 +6°C° 0 mm 5 mps 744 mmHg 76%
    01:00 +5°C° 0 mm 5 mps 744 mmHg 78%
    02:00 +5°C° 0 mm 5 mps 745 mmHg 79%
    03:00 +5°C° 0 mm 5 mps 745 mmHg 80%
    04:00 +3°C° 0 mm 5 mps 746 mmHg 82%
    05:00 +3°C° 0 mm 5 mps 747 mmHg 84%
    06:00 +4°C° 0 mm 4 mps 747 mmHg 85%
    07:00 +3°C° 0 mm 5 mps 748 mmHg 82%
    08:00 +5°C° 0 mm 5 mps 748 mmHg 79%
    09:00 +4°C° 0 mm 6 mps 749 mmHg 76%
    10:00 +5°C° 0 mm 5 mps 749 mmHg 73%
    11:00 +6°C° 0 mm 5 mps 750 mmHg 71%
    12:00 +6°C° 0 mm 5 mps 750 mmHg 68%
    13:00 +7°C° 0 mm 5 mps 750 mmHg 65%
    14:00 +7°C° 0 mm 4 mps 750 mmHg 62%
    15:00 +7°C° 0 mm 4 mps 751 mmHg 59%
    16:00 +7°C° 0 mm 4 mps 751 mmHg 61%
    17:00 +8°C° 0 mm 3 mps 751 mmHg 63%
    18:00 +7°C° 0 mm 2 mps 751 mmHg 64%
    19:00 +7°C° 0 mm 3 mps 751 mmHg 66%
    20:00 +5°C° 0 mm 3 mps 751 mmHg 68%
    21:00 +4°C° 0 mm 3 mps 751 mmHg 70%
    22:00 +4°C° 0 mm 4 mps 750 mmHg 70%
    23:00 +4°C° 0 mm 4 mps 750 mmHg 70%

    Day after tomorrow, 27 September, Thursday

    Time Temperature Precipitation Wind Pressure Humidity
    00:00 +3°C° 0 mm 5 mps 749 mmHg 70%
    01:00 +3°C° 0 mm 5 mps 749 mmHg 69%
    02:00 +4°C° 0 mm 6 mps 748 mmHg 69%
    03:00 +4°C° 0 mm 7 mps 747 mmHg 69%
    04:00 +4°C° 0.1 mm 7 mps 746 mmHg 67%
    05:00 +4°C° 0.1 mm 8 mps 745 mmHg 66%
    06:00 +3°C° 0.1 mm 9 mps 744 mmHg 65%
    07:00 +3°C° 0.8 mm 9 mps 744 mmHg 68%
    08:00 +3°C° 0.8 mm 10 mps 743 mmHg 72%
    09:00 +3°C° 0.8 mm 11 mps 742 mmHg 76%
    10:00 +5°C° 0.6 mm 10 mps 742 mmHg 78%
    11:00 +5°C° 0.6 mm 10 mps 742 mmHg 80%
    12:00 +5°C° 0.6 mm 9 mps 741 mmHg 82%
    13:00 +6°C° 0.3 mm 9 mps 741 mmHg 83%
    14:00 +6°C° 0.3 mm 9 mps 741 mmHg 84%
    15:00 +7°C° 0.3 mm 8 mps 741 mmHg 84%
    16:00 +7°C° 0.3 mm 8 mps 741 mmHg 85%
    17:00 +8°C° 0.3 mm 7 mps 741 mmHg 86%
    18:00 +8°C° 0.3 mm 7 mps 741 mmHg 86%
    19:00 +8°C° 0.1 mm 6 mps 742 mmHg 86%
    20:00 +7°C° 0.1 mm 5 mps 742 mmHg 86%
    21:00 +7°C° 0.1 mm 5 mps 743 mmHg 86%
    22:00 +7°C° 0 mm 5 mps 743 mmHg 86%
    23:00 +6°C° 0 mm 4 mps 743 mmHg 86%

    28 September, Friday

    Time Temperature Precipitation Wind Pressure Humidity
    00:00 +6°C° 0 mm 4 mps 744 mmHg 86%
    01:00 +5°C° 0 mm 4 mps 744 mmHg 86%
    02:00 +5°C° 0 mm 4 mps 744 mmHg 87%
    03:00 +5°C° 0 mm 4 mps 745 mmHg 87%
    04:00 +4°C° 0 mm 4 mps 745 mmHg 88%
    05:00 +4°C° 0 mm 4 mps 745 mmHg 89%
    06:00 +4°C° 0 mm 4 mps 745 mmHg 90%
    07:00 +5°C° 0 mm 4 mps 745 mmHg 84%
    08:00 +6°C° 0 mm 5 mps 745 mmHg 79%
    09:00 +8°C° 0 mm 6 mps 744 mmHg 73%
    10:00 +9°C° 0 mm 7 mps 744 mmHg 69%
    11:00 +11°C° 0 mm 8 mps 743 mmHg 64%
    12:00 +13°C° 0 mm 9 mps 743 mmHg 60%
    13:00 +13°C° 0 mm 9 mps 742 mmHg 65%
    14:00 +13°C° 0 mm 9 mps 742 mmHg 71%
    15:00 +13°C° 0 mm 9 mps 741 mmHg 76%
    16:00 +13°C° 0 mm 9 mps 741 mmHg 77%
    17:00 +13°C° 0 mm 9 mps 740 mmHg 78%
    18:00 +13°C° 0 mm 9 mps 740 mmHg 79%
    19:00 +13°C° 0.2 mm 8 mps 740 mmHg 80%
    20:00 +13°C° 0.2 mm 8 mps 739 mmHg 81%
    21:00 +13°C° 0.2 mm 8 mps 739 mmHg 82%
    22:00 +13°C° 0.4 mm 8 mps 739 mmHg 82%
    23:00 +12°C° 0.4 mm 7 mps 740 mmHg 82%

    29 September, Saturday

    Time Temperature Precipitation Wind Pressure Humidity
    00:00 +11°C° 0.4 mm 7 mps 740 mmHg 81%
    01:00 +10°C° 0 mm 6 mps 741 mmHg 83%
    02:00 +8°C° 0 mm 5 mps 742 mmHg 84%
    03:00 +7°C° 0 mm 4 mps 743 mmHg 86%
    04:00 +6°C° 0 mm 4 mps 743 mmHg 87%
    05:00 +5°C° 0 mm 4 mps 744 mmHg 88%
    06:00 +4°C° 0 mm 3 mps 745 mmHg 88%
    07:00 +4°C° 0 mm 3 mps 746 mmHg 82%
    08:00 +5°C° 0 mm 3 mps 746 mmHg 75%
    09:00 +5°C° 0 mm 3 mps 747 mmHg 69%
    10:00 +7°C° 0 mm 3 mps 747 mmHg 61%
    11:00 +8°C° 0 mm 3 mps 748 mmHg 53%
    12:00 +9°C° 0 mm 3 mps 748 mmHg 45%
    13:00 +9°C° 0 mm 2 mps 748 mmHg 44%
    14:00 +10°C° 0 mm 2 mps 748 mmHg 42%
    15:00 +10°C° 0 mm 2 mps 748 mmHg 40%
    16:00 +9°C° 0 mm 2 mps 748 mmHg 43%
    17:00 +9°C° 0 mm 2 mps 748 mmHg 47%
    18:00 +8°C° 0 mm 2 mps 749 mmHg 50%
    19:00 +8°C° 0 mm 2 mps 749 mmHg 52%
    20:00 +7°C° 0 mm 2 mps 749 mmHg 54%
    21:00 +6°C° 0 mm 2 mps 750 mmHg 57%
    22:00 +6°C° 0 mm 2 mps 750 mmHg 59%
    23:00 +5°C° 0 mm 2 mps 750 mmHg 62%

    30 September, Sunday

    Time Temperature Precipitation Wind Pressure Humidity
    00:00 +5°C° 0 mm 2 mps 751 mmHg 64%
    01:00 +4°C° 0 mm 2 mps 751 mmHg 66%
    02:00 +4°C° 0 mm 2 mps 751 mmHg 68%
    03:00 +4°C° 0 mm 2 mps 752 mmHg 70%
    04:00 +3°C° 0 mm 2 mps 752 mmHg 72%
    05:00 +3°C° 0 mm 2 mps 752 mmHg 74%
    06:00 +3°C° 0 mm 2 mps 753 mmHg 75%
    07:00 +4°C° 0 mm 2 mps 753 mmHg 72%
    08:00 +5°C° 0 mm 2 mps 753 mmHg 69%
    09:00 +6°C° 0 mm 2 mps 754 mmHg 66%
    10:00 +7°C° 0 mm 2 mps 754 mmHg 62%
    11:00 +8°C° 0 mm 2 mps 754 mmHg 58%
    12:00 +9°C° 0 mm 2 mps 754 mmHg 54%
    13:00 +9°C° 0 mm 2 mps 754 mmHg 52%
    14:00 +11°C° 0 mm 1 mps 754 mmHg 50%
    15:00 +11°C° 0 mm 1 mps 754 mmHg 49%
    16:00 +10°C° 0 mm 1 mps 754 mmHg 51%
    17:00 +9°C° 0 mm 1 mps 754 mmHg 54%
    18:00 +8°C° 0 mm 0 mps 754 mmHg 56%
    19:00 +8°C° 0 mm 1 mps 754 mmHg 57%
    20:00 +8°C° 0 mm 1 mps 754 mmHg 58%
    21:00 +7°C° 0 mm 1 mps 754 mmHg 59%
    22:00 +7°C° 0 mm 1 mps 754 mmHg 60%
    23:00 +6°C° 0 mm 2 mps 754 mmHg 62%
    Show more